Regional Weather Roundup
Issued by NWS Burlington, VT

Current Version | Previous Version | Text Only | Print | Product List | Glossary Off
Versions: 1 2 3 4 5 6 7 8 9 10 11 12 13 14 15 16 17 18 19 20 21 22 23 24 25 26 27 28 29 30 31 32 33 34 35 36 37 38 39 40 41 42 43 44 45 46 47 48 49 50

000
ASUS41 KBTV 031930
RWRBTV
VERMONT REGIONAL WEATHER ROUNDUP
NATIONAL WEATHER SERVICE BURLINGTON VT
300 PM EDT FRI JUL 03 2015

NOTE: "FAIR" INDICATES FEW OR NO CLOUDS BELOW 12,000 FEET WITH NO
SIGNIFICANT WEATHER AND/OR OBSTRUCTIONS TO VISIBILITY.

* THESE REPORTS ARE NOT UNDER NWS QUALITY CONTROL AND/OR DO NOT
  REPORT WEATHER SUCH AS PRECIPITATION AND FOG.

VTZ001>019-032000-
_____VERMONT_____


CITY           SKY/WX    TMP DP  RH WIND       PRES   REMARKS
BURLINGTON     MOSUNNY   77  44  30 VRB3      29.95F
MONTPELIER     SUNNY     72  42  34 VRB5      30.01F
MORRISVILLE    SUNNY     76  44  32 NW9       29.98S
ST. JOHNSBURY*   N/A     75  43  31 MISG      29.93F
LYNDONVILLE*   FAIR      73  43  33 SW7       29.98S
MIDDLEBURY*    FAIR      75  43  31 NW3       29.96F
RUTLAND*       SUNNY     72  43  35 CALM      29.99S
SPRINGFIELD    SUNNY     76  42  29 VRB6      29.97S
HIGHGATE*      FAIR      75  47  36 CALM      29.94F
NEWPORT*       FAIR      71  48  43 W6        29.97S
BENNINGTON     SUNNY     73  47  39 N6        29.99F
SUTTON*          N/A     70 N/A N/A MISG        N/A
MT. MANSFIELD*   N/A     61 N/A N/A NW9         N/A

_____LAKE CHAMPLAIN_____


CITY           SKY/WX    TMP DP  RH WIND       PRES   REMARKS
BURTON ISLAND*   N/A     72  52  49 E5          N/A
COLCHESTER RF*   N/A     70  55  60 S7          N/A
DIAMOND ISL*     N/A     72  48  43 SW6         N/A

$$

NYZ007-026>031-035-052-083-032000-
_____NORTHERN NEW YORK_____


CITY           SKY/WX    TMP DP  RH WIND       PRES   REMARKS
PLATTSBURGH    SUNNY     74  50  42 SE10      29.94F
SARANAC LAKE   SUNNY     71  42  35 S8        29.97F
MASSENA        SUNNY     75  50  41 SW10      29.96F
OGDENSBURG*    MOSUNNY   77  50  38 W6        29.97S
POTSDAM*       SUNNY     73  52  46 SW9       29.97S
WATERTOWN      SUNNY     71  51  49 W9        29.99F
FT DRUM        SUNNY     72  49  42 NW7       29.98S
ALBANY         MOSUNNY   76  45  33 S5        29.99S
GLENS FALLS    MOSUNNY   75  49  39 SE3       29.97S

$$
NHZ002-005-011-032000-
_____NEW HAMPSHIRE_____


CITY           SKY/WX    TMP DP  RH WIND       PRES   REMARKS
LEBANON        SUNNY     78  44  29 N7        29.95F
KEENE          SUNNY     75  45  33 SW3       29.97S
MT WASHINGTON  PTSUNNY   46  39  76 NW25G35     N/A
PLYMOUTH       FAIR      76  52  42 W7        29.94S
WHITEFIELD     SUNNY     75  44  33 W6        29.95S

$$

_____REGIONAL QUEBEC LOCATIONS_____


CITY           SKY/WX    TMP DP  RH WIND       PRES   REMARKS
MONTREAL       MOSUNNY   75  52  43 SW14      29.93F
QUEBEC CITY    PTSUNNY   77  45  31 W18G26    29.84F
SHERBROOKE     MOSUNNY   72  46  40 W12G22    29.93S

_____REGIONAL ONTARIO LOCATIONS_____


CITY           SKY/WX    TMP DP  RH WIND       PRES   REMARKS
OTTAWA         MOSUNNY   75  45  33 W6        29.95F

______KEY______
VSB  - VISIBILITY IN MILES
WCI  - WIND CHILL INDEX
HX   - HEAT INDEX
$$
NNNN


USA.gov is the U.S. government's official web portal to all federal, state and local government web resources and services.